Temperature
24 23 22 21 20 19 19 18 17 17 16 15 15 15 14 14 14 14 13 13 13 13 13 13 13 13 13 13 13 14 14 14 15 15 15 16 16 16 16 17 17 17 17
24 22 21 21 20 19 19 18 17 16 16 15 15 15 14 14 14 14 13 13 13 13 13 13 13 13 13 13 13 13 14 14 14 14 15 15 16 16 16 17 17 17 17
24 22 21 21 20 19 18 18 17 16 16 15 15 14 14 14 14 14 14 13 13 13 13 13 13 13 13 13 13 13 14 14 14 14 14 15 15 16 16 16 17 17 17
24 23 22 21 20 19 18 18 17 16 16 15 15 14 14 14 14 14 14 13 13 13 13 13 13 13 13 13 13 13 13 13 14 14 14 15 15 15 16 16 16 16 17
24 23 22 21 20 19 18 17 17 16 15 15 15 14 14 14 14 14 14 14 13 13 13 13 13 13 13 13 13 13 13 13 13 14 14 14 14 15 15 15 16 16 16
24 23 22 21 20 19 18 17 17 16 15 15 14 14 14 14 14 14 14 14 14 13 13 13 13 13 13 13 13 13 13 13 13 13 14 14 14 14 15 15 15 16 16
24 22 21 20 19 19 18 17 16 16 15 15 15 14 14 14 14 14 14 14 14 13 13 13 13 13 13 13 13 13 13 13 13 13 13 13 14 14 14 14 15 15 15
24 22 21 20 19 18 18 17 16 16 15 15 15 15 14 14 14 14 14 14 14 13 13 13 13 13 13 13 13 13 13 13 13 13 13 13 13 14 14 14 14 14 15
23 22 21 20 19 18 18 17 17 16 15 15 15 15 14 14 14 14 14 14 14 14 13 13 13 13 13 13 13 13 13 13 13 13 13 13 13 13 13 14 14 14 14
23 22 21 20 19 19 18 17 17 16 16 15 15 15 15 14 14 14 14 14 14 14 14 13 13 13 13 13 13 13 13 13 13 13 13 13 13 13 13 13 13 14 14
23 22 21 20 19 19 18 17 17 16 16 16 15 15 15 15 14 14 14 14 14 14 14 14 14 13 13 13 13 13 13 13 13 13 13 13 13 13 13 13 13 13 13
23 22 21 20 19 19 18 17 17 16 16 16 15 15 15 15 15 14 14 14 14 14 14 14 14 14 13 13 13 13 13 13 13 13 13 13 13 13 13 13 13 13 13
23 22 21 20 20 19 18 18 17 17 16 16 15 15 15 15 15 15 14 14 14 14 14 14 14 14 13 13 13 13 13 13 13 13 13 13 13 12 12 13 13 13 13
23 22 21 21 20 19 18 18 18 17 17 16 16 15 15 15 15 15 15 14 14 14 14 14 14 14 13 13 13 13 13 13 13 13 13 13 13 13 12 12 12 13 13
23 22 22 21 20 19 19 18 18 17 17 16 16 16 16 15 15 15 15 14 14 14 14 14 14 13 13 13 13 13 13 13 13 13 13 13 13 13 13 13 13 13 13
24 23 22 21 20 19 19 18 18 18 17 17 16 16 16 15 15 15 15 14 14 14 14 14 13 13 13 13 13 13 13 13 13 13 13 13 13 13 13 13 13 13 13
24 23 22 21 21 20 19 19 18 18 17 17 16 16 16 15 15 15 15 14 14 14 14 13 13 13 13 13 13 13 13 13 13 13 13 13 13 13 13 13 13 13 12
24 23 23 22 21 21 20 19 18 18 17 17 17 16 16 15 15 15 15 14 14 14 13 13 13 13 13 13 13 13 13 13 13 13 13 13 12 13 13 12 12 12 12
23 23 22 22 21 21 20 20 19 18 18 17 17 16 16 16 15 15 15 14 14 14 13 13 13 13 13 13 13 13 13 13 13 12 12 12 12 12 12 12 12 12 12
23 22 22 22 22 21 20 20 19 18 18 17 17 16 16 16 15 15 15 14 14 14 13 13 13 12 12 12 12 12 12 12 12 12 12 12 12 12 12 12 12 12 12
22 22 22 21 21 21 20 20 19 19 18 17 17 17 16 16 16 15 15 14 14 13 13 12 12 12 12 12 12 12 12 12 12 12 12 12 12 12 12 12 11 11 11
21 21 21 21 21 20 20 20 19 19 18 18 17 17 16 16 15 15 14 14 13 13 12 12 12 12 12 12 12 12 12 12 11 11 11 11 11 11 11 11 11 11 11
20 20 20 20 20 20 19 19 19 19 18 18 17 16 16 15 15 15 14 14 13 13 12 12 12 11 11 11 11 11 11 11 11 11 10 10 10 10 11 11 10 10 10
19 19 19 19 19 19 19 19 19 18 18 18 17 16 16 15 15 14 14 13 13 12 12 12 11 11 11 11 11 11 11 10 10 10 10 10 10 10 9 9 10 10 9
18 18 18 19 19 18 18 18 18 18 17 17 17 16 15 15 15 14 14 13 13 13 12 12 11 11 11 11 11 11 11 10 10 10 9 9 9 9 9 9 9 9 9
17 17 17 18 18 18 18 18 18 17 17 16 16 15 15 15 15 14 14 13 13 12 12 12 11 11 11 11 11 11 10 10 10 9 9 9 8 8 8 8 8 8 8
Wind_Speed
11 10 10 8 7 6 5 7 5 5 4 2 1 2 2 2 2 2 3 4 4 5 4 4 4 3 3 3 3 2 3 2 2 2 3 3 3 3 4 3 2 2 3
11 11 10 9 7 6 5 6 6 5 5 2 0 0 1 1 1 0 1 3 4 4 5 4 4 3 2 2 3 2 1 2 2 1 1 1 1 2 4 3 3 3 2
12 14 11 10 8 7 6 5 5 6 5 4 1 2 1 2 1 1 1 1 2 2 3 5 4 3 2 2 2 2 2 1 2 2 1 0 1 2 2 3 2 3 2
9 12 11 10 9 7 6 6 6 5 5 4 3 1 1 1 1 1 1 2 2 1 2 3 4 4 3 3 3 3 2 1 2 2 2 1 1 1 2 2 1 2 3
10 11 11 10 9 8 7 5 6 6 5 4 3 1 2 2 2 2 2 2 1 1 1 2 3 3 3 3 3 3 2 1 1 1 2 2 2 2 0 1 2 2 2
10 10 10 9 8 9 7 6 6 6 5 3 3 2 1 1 2 2 2 2 1 1 2 2 2 3 3 3 3 3 3 2 1 1 1 1 1 2 1 1 2 2 2
10 11 11 10 9 9 8 7 7 6 5 4 3 3 2 2 2 2 1 2 2 2 3 3 2 2 3 3 3 3 2 2 1 1 1 1 1 1 1 1 2 2 2
9 10 11 10 10 10 9 8 8 7 6 4 3 3 3 2 0 1 2 2 2 2 2 2 2 1 1 2 2 3 2 2 3 3 2 1 1 1 1 1 1 2 2
9 10 11 11 10 10 9 9 8 7 7 5 4 3 2 1 0 1 1 1 1 1 2 2 2 0 0 1 2 2 2 2 2 2 3 2 1 1 1 1 0 0 1
9 10 10 10 10 10 10 9 8 8 7 6 5 4 2 1 1 1 1 2 3 2 2 3 2 1 1 1 1 2 2 2 2 1 2 2 1 1 1 1 1 1 1
8 9 10 10 9 10 10 9 8 7 7 7 5 4 4 3 3 2 2 2 3 2 2 2 2 1 2 1 1 1 2 2 2 2 1 2 1 1 1 2 1 1 1
8 9 10 10 9 10 10 10 9 8 7 6 5 5 5 4 4 3 3 3 3 3 3 2 1 1 1 1 1 1 2 2 2 2 2 2 1 1 1 1 2 2 2
8 9 9 10 10 10 9 9 9 8 8 7 6 5 6 5 4 3 2 2 2 2 3 2 1 1 0 1 1 2 2 2 1 1 1 1 1 1 1 1 1 2 2
9 9 9 10 10 10 9 9 9 9 9 8 7 6 5 4 3 2 1 2 1 2 3 2 1 0 0 1 2 2 2 2 2 1 1 0 1 1 2 1 2 2 2
9 9 10 10 10 10 10 9 9 9 9 8 7 6 5 4 3 3 2 2 1 3 2 2 2 2 1 2 3 3 4 3 3 2 1 1 3 2 1 1 2 3 2
8 10 11 11 12 12 11 10 10 9 9 9 8 7 5 5 4 3 2 1 1 2 2 3 2 2 2 3 3 3 4 5 4 2 2 1 3 3 2 2 3 3 2
6 8 10 10 11 12 12 11 10 9 9 9 8 7 6 5 4 3 3 2 3 3 2 2 2 1 2 3 3 4 4 5 4 3 2 2 2 3 0 2 4 4 5
3 6 8 9 10 11 11 11 10 10 9 9 8 8 7 6 5 4 3 2 2 1 1 1 1 1 2 2 3 4 4 5 4 2 2 1 3 3 3 2 2 2 2
2 4 6 7 9 10 11 11 11 10 9 9 8 8 8 7 6 5 4 3 2 1 1 1 1 0 2 2 3 3 4 3 2 1 2 3 4 5 5 3 4 4 4
1 2 4 6 7 8 9 11 11 11 10 9 8 8 8 7 7 6 4 4 3 3 2 1 1 1 3 4 4 4 2 3 2 2 3 6 5 6 6 3 3 4 4
1 1 3 4 5 7 9 10 10 10 10 9 8 8 8 8 6 5 4 4 3 3 3 2 2 3 4 5 5 5 3 3 4 3 3 4 6 6 5 4 2 3 5
2 1 2 3 4 6 8 9 9 9 10 10 9 8 8 7 7 6 4 3 3 4 3 3 2 3 5 5 3 3 3 4 3 3 3 3 5 5 4 3 3 5 6
4 3 3 3 4 5 7 8 7 9 10 10 10 8 8 6 7 6 5 4 3 3 3 3 3 3 4 4 3 2 2 3 2 2 3 2 4 4 2 2 4 4 3
5 4 4 5 5 6 6 7 8 9 11 11 10 9 8 7 6 5 4 3 2 2 2 2 3 3 4 4 3 2 2 2 2 1 0 1 2 3 3 2 2 2 3
5 5 5 6 7 6 7 8 9 10 11 11 10 9 8 8 7 5 3 4 4 4 3 3 3 3 4 3 4 3 2 2 3 3 1 1 2 3 3 3 3 3 3
7 6 7 6 6 7 8 8 10 11 11 11 10 8 8 7 8 8 6 8 7 9 9 8 6 5 6 6 5 4 3 4 5 3 1 2 2 3 3 2 2 3 3
Wind_Direction
165 148 140 138 148 148 135 126 128 117 104 73 21 25 24 345 50 38 42 348 347 360 339 345 341 345 339 335 331 331 325 323 315 315 305 273 229 213 226 226 208 229 226
157 142 146 148 161 149 140 137 132 117 110 113 15 195 53 305 106 34 62 356 358 6 348 342 329 332 319 338 338 342 347 328 337 328 332 325 317 267 226 208 203 221 214
162 155 160 154 158 153 148 146 132 135 125 131 82 18 353 305 42 29 63 315 360 29 350 330 329 328 342 1 335 4 13 338 325 341 27 27 311 300 275 230 209 198 194
149 149 153 154 160 153 149 153 138 126 117 116 90 333 334 20 22 355 26 328 58 45 11 348 338 341 355 3 351 30 351 349 333 332 338 341 14 308 310 316 291 226 201
149 149 151 152 156 147 144 143 131 123 115 112 136 278 13 360 1 356 4 350 38 37 47 5 341 347 357 4 1 6 3 1 345 337 333 342 339 294 300 312 320 312 248
150 149 145 143 142 134 138 137 131 126 130 157 169 167 134 313 311 322 350 333 332 43 50 24 350 357 10 6 0 351 348 351 340 339 341 355 348 340 356 323 308 296 285
151 149 147 150 144 145 150 155 149 148 157 180 189 182 174 260 280 325 339 322 346 42 37 20 351 6 14 359 355 332 325 330 335 332 328 336 332 341 342 334 320 314 299
152 154 153 154 153 157 162 170 163 162 168 189 192 191 186 220 327 356 327 333 354 44 35 359 322 2 15 356 350 327 333 357 354 349 347 331 319 340 340 338 346 326 309
154 155 156 159 161 165 170 176 170 172 175 187 193 197 189 138 57 308 299 334 332 10 13 323 303 303 106 359 356 338 347 353 344 341 339 339 325 349 320 339 195 191 305
162 161 159 164 167 169 172 175 177 180 176 184 198 175 175 178 186 268 354 344 331 348 314 313 320 13 45 101 63 328 330 336 317 267 280 320 342 350 328 325 296 242 227
167 164 160 165 166 166 169 174 180 184 178 183 187 174 179 193 214 206 211 241 263 272 276 294 314 4 18 36 85 313 320 320 322 327 335 332 316 347 335 338 318 281 254
166 163 162 164 168 173 176 179 183 183 176 180 180 183 182 192 216 209 208 227 237 252 264 266 287 354 19 358 358 315 324 324 329 326 328 310 326 3 303 305 302 287 262
169 166 165 170 174 178 181 182 182 177 169 174 185 193 197 198 201 208 204 234 250 257 259 258 258 264 288 324 319 304 292 285 286 309 327 328 352 333 312 299 307 304 303
175 173 171 175 176 178 182 186 180 173 171 172 187 204 207 182 179 183 193 259 282 297 296 303 298 279 301 2 338 337 330 314 297 287 270 235 36 18 2 353 350 341 336
182 180 178 182 179 181 184 186 180 176 176 172 184 198 201 171 166 167 202 243 276 286 301 322 329 341 0 31 21 347 329 319 310 309 293 153 147 128 106 16 353 353 342
194 188 185 187 185 186 188 186 179 179 177 175 180 184 184 165 167 180 198 212 251 293 321 322 321 335 20 52 33 358 327 318 314 314 313 194 172 171 190 234 256 257 277
205 195 191 191 190 190 188 183 179 176 178 176 173 169 171 166 172 192 193 200 230 242 255 291 319 16 65 55 24 350 313 296 301 314 324 349 55 94 68 262 265 265 259
222 200 193 188 189 190 180 175 171 176 181 174 169 164 167 169 173 184 187 207 239 216 184 278 319 26 58 37 3 335 297 282 284 295 323 20 57 43 24 351 329 307 291
254 207 197 188 189 186 177 172 174 177 174 172 170 165 165 167 172 181 187 193 207 215 205 227 247 125 70 41 13 345 292 282 283 359 41 46 66 43 37 20 350 344 337
287 209 197 189 186 178 171 174 175 175 174 169 168 162 160 163 170 175 179 180 180 190 207 204 195 112 93 77 48 16 323 328 347 42 69 64 67 50 42 24 4 350 335
326 203 193 191 183 171 168 177 178 178 168 158 157 158 156 158 160 165 172 172 171 184 201 195 163 126 109 104 72 46 20 358 355 21 53 55 48 43 36 28 12 352 337
323 245 211 197 179 171 174 181 179 166 152 151 156 159 156 162 159 155 165 169 174 189 198 193 173 143 126 117 103 73 46 17 15 23 47 47 31 30 26 21 9 1 355
308 272 228 206 197 189 186 183 169 156 150 152 157 158 154 152 150 155 165 177 189 190 188 171 155 131 114 109 96 89 41 27 43 50 50 32 14 6 18 30 18 12 8
304 278 242 215 212 204 196 181 165 158 155 158 161 162 162 158 151 146 153 155 165 171 170 141 134 122 102 83 51 17 16 13 24 358 305 334 358 12 18 32 28 30 40
296 285 259 234 222 209 198 183 171 168 168 167 168 171 167 156 144 124 96 111 80 92 104 87 81 93 107 102 91 71 38 11 5 344 360 40 39 39 37 34 32 27 25
296 284 271 252 235 219 207 188 179 178 177 178 178 173 162 153 146 136 109 72 101 97 92 94 104 91 107 124 105 79 42 13 3 17 38 50 46 38 31 27 16 14 11
Height
1490 1493 1497 1500 1502 1504 1505 1504 1505 1505 1505 1504 1504 1503 1503 1502 1502 1501 1499 1498 1497 1496 1495 1494 1493 1492 1492 1492 1492 1491 1491 1492 1492 1492 1493 1493 1494 1495 1496 1498 1499 1501 1502
1486 1490 1494 1497 1501 1502 1503 1504 1504 1504 1504 1503 1503 1503 1503 1502 1501 1500 1499 1497 1496 1495 1494 1493 1492 1492 1492 1491 1491 1491 1490 1491 1491 1492 1492 1492 1494 1493 1494 1496 1497 1499 1500
1483 1487 1491 1495 1498 1500 1502 1503 1503 1503 1503 1503 1502 1502 1502 1502 1501 1500 1499 1497 1496 1495 1493 1492 1492 1492 1491 1491 1491 1490 1490 1490 1491 1492 1492 1493 1492 1493 1494 1495 1496 1497 1498
1481 1485 1489 1493 1496 1498 1500 1501 1502 1502 1502 1502 1501 1501 1502 1501 1501 1500 1499 1497 1496 1495 1493 1492 1491 1491 1491 1490 1490 1490 1490 1490 1490 1491 1492 1493 1493 1494 1493 1494 1495 1496 1497
1480 1484 1487 1491 1494 1496 1498 1500 1500 1501 1500 1501 1500 1501 1501 1500 1500 1499 1498 1497 1496 1495 1494 1492 1491 1491 1490 1490 1490 1489 1489 1490 1490 1491 1491 1492 1492 1493 1493 1493 1494 1495 1496
1478 1482 1486 1489 1492 1494 1496 1498 1499 1499 1499 1499 1500 1500 1500 1499 1499 1499 1498 1497 1496 1495 1494 1493 1491 1491 1490 1489 1489 1489 1489 1489 1489 1490 1491 1491 1492 1492 1493 1493 1493 1494 1494
1476 1481 1484 1487 1490 1492 1494 1496 1497 1497 1498 1498 1499 1499 1499 1499 1499 1498 1498 1497 1496 1495 1494 1492 1491 1490 1490 1489 1489 1489 1489 1489 1489 1489 1490 1490 1491 1491 1492 1492 1492 1492 1493
1475 1479 1482 1485 1488 1490 1492 1494 1495 1495 1496 1497 1498 1498 1498 1498 1498 1497 1497 1496 1496 1495 1493 1492 1492 1491 1490 1489 1489 1488 1488 1488 1488 1488 1489 1489 1490 1490 1491 1492 1492 1492 1492
1474 1477 1480 1483 1485 1488 1489 1491 1493 1494 1494 1495 1496 1497 1497 1497 1497 1496 1496 1496 1495 1494 1493 1493 1492 1491 1490 1489 1489 1488 1488 1488 1488 1488 1488 1488 1489 1489 1490 1490 1491 1492 1491
1473 1475 1478 1481 1483 1485 1487 1489 1491 1492 1493 1494 1494 1495 1495 1496 1496 1495 1495 1495 1494 1494 1493 1493 1492 1491 1490 1489 1488 1488 1488 1487 1487 1487 1487 1487 1487 1488 1488 1489 1489 1490 1491
1471 1473 1476 1479 1481 1483 1485 1487 1488 1490 1491 1492 1493 1494 1494 1494 1494 1494 1494 1493 1493 1493 1493 1492 1492 1491 1490 1489 1488 1488 1487 1487 1486 1486 1486 1486 1486 1486 1487 1487 1487 1488 1489
1468 1471 1473 1476 1478 1481 1482 1484 1486 1487 1488 1490 1491 1492 1492 1492 1493 1493 1493 1493 1492 1492 1492 1492 1491 1490 1490 1489 1488 1487 1487 1486 1486 1486 1485 1485 1485 1485 1485 1486 1486 1486 1487
1465 1468 1470 1473 1475 1477 1480 1481 1483 1485 1486 1487 1489 1490 1490 1491 1491 1492 1492 1491 1491 1491 1491 1491 1490 1489 1489 1488 1487 1487 1486 1486 1485 1485 1484 1484 1484 1484 1484 1484 1484 1484 1485
1462 1464 1467 1469 1471 1474 1476 1478 1480 1482 1483 1485 1486 1487 1489 1489 1490 1490 1490 1490 1490 1490 1490 1489 1489 1488 1488 1487 1486 1486 1485 1485 1485 1484 1483 1483 1483 1483 1483 1483 1483 1483 1483
1458 1460 1463 1465 1468 1470 1472 1475 1477 1479 1480 1482 1483 1485 1486 1487 1487 1488 1488 1488 1488 1488 1488 1487 1487 1487 1486 1485 1485 1484 1484 1484 1483 1483 1483 1482 1482 1482 1481 1481 1481 1481 1481
1454 1456 1458 1461 1463 1466 1468 1471 1473 1475 1477 1479 1480 1482 1483 1484 1485 1485 1485 1485 1485 1485 1485 1485 1485 1484 1484 1484 1483 1483 1482 1482 1482 1482 1482 1481 1481 1480 1480 1480 1480 1480 1480
1450 1452 1454 1456 1459 1461 1464 1467 1469 1472 1474 1476 1477 1479 1480 1481 1482 1483 1483 1483 1483 1483 1483 1483 1482 1482 1481 1481 1481 1480 1480 1480 1480 1480 1480 1480 1480 1479 1479 1479 1478 1478 1478
1447 1448 1450 1452 1455 1458 1460 1463 1466 1468 1471 1473 1474 1476 1477 1478 1479 1480 1480 1480 1480 1480 1480 1480 1480 1479 1479 1478 1478 1478 1478 1478 1478 1478 1478 1478 1478 1477 1477 1477 1477 1477 1477
1445 1445 1447 1449 1451 1454 1456 1459 1462 1464 1467 1469 1471 1472 1474 1475 1476 1477 1477 1477 1478 1478 1478 1477 1477 1477 1476 1476 1476 1475 1475 1475 1476 1476 1476 1476 1476 1476 1476 1475 1475 1475 1475
1443 1443 1444 1446 1448 1450 1452 1455 1458 1460 1462 1464 1467 1469 1470 1471 1472 1473 1474 1474 1475 1475 1475 1475 1475 1475 1474 1474 1473 1473 1473 1473 1474 1474 1474 1474 1474 1474 1473 1473 1473 1472 1472
1441 1441 1442 1443 1444 1446 1449 1451 1454 1456 1458 1460 1463 1465 1466 1468 1469 1470 1471 1472 1472 1472 1472 1473 1473 1472 1472 1472 1471 1471 1471 1471 1472 1472 1472 1472 1471 1471 1471 1471 1470 1470 1470
1440 1440 1440 1441 1442 1443 1445 1447 1449 1452 1454 1456 1459 1461 1463 1464 1465 1466 1468 1468 1469 1470 1470 1470 1471 1470 1470 1470 1470 1469 1469 1469 1470 1470 1470 1469 1469 1469 1468 1468 1468 1468 1468
1439 1439 1438 1438 1439 1440 1442 1443 1445 1448 1450 1452 1454 1456 1458 1460 1461 1463 1464 1465 1466 1467 1467 1468 1468 1468 1468 1468 1468 1468 1468 1468 1468 1468 1468 1468 1467 1467 1466 1466 1466 1465 1465
1438 1437 1436 1435 1436 1437 1438 1440 1441 1443 1446 1447 1450 1452 1454 1456 1457 1459 1460 1461 1462 1463 1464 1465 1465 1466 1466 1466 1466 1466 1466 1466 1466 1466 1466 1466 1465 1465 1464 1464 1464 1463 1463
1435 1434 1433 1432 1432 1433 1434 1435 1437 1439 1441 1443 1445 1447 1449 1451 1453 1454 1456 1457 1458 1459 1460 1461 1462 1462 1463 1463 1464 1464 1464 1464 1464 1464 1464 1464 1464 1464 1463 1463 1462 1462 1461
1432 1430 1429 1428 1428 1428 1429 1430 1432 1434 1435 1438 1440 1442 1444 1446 1448 1449 1451 1453 1455 1456 1457 1458 1459 1459 1460 1461 1461 1462 1462 1462 1462 1462 1462 1462 1462 1462 1462 1461 1460 1460 1459